Regional Weather Roundup
Issued by NWS Kansas City/Pleasant Hill, MO

Home | Current Version | Previous Version | Graphics & Text | Print | Product List | Glossary Off
Versions: 1 2 3 4 5 6 7 8 9 10 11 12 13 14 15 16 17 18 19 20 21 22 23 24 25 26 27 28 29 30 31 32 33 34 35 36 37 38 39 40 41 42 43 44 45 46 47 48 49 50

000
ASUS43 KEAX 220004
RWREAX

WEATHER ROUNDUP FOR EASTERN KANSAS AND NORTHWEST MISSOURI
NATIONAL WEATHER SERVICE KANSAS CITY/PLEASANT HILL MO
600 PM CST SUN DEC 21 2014

KSZ040-057-103>105-MOZ028-029-037-043-220100-
...KANSAS CITY METROPOLITAN AREA...

CITY           SKY/WX    TMP DP  RH WIND       PRES   REMARKS
K.C. INTL      CLOUDY    44  41  89 S14       29.81F
6HR MIN TEMP:  42; 6HR MAX TEMP:  45;

K.C. DOWNTOWN  CLOUDY    46  40  79 S9        29.82F
6HR MIN TEMP:  44; 6HR MAX TEMP:  47;

LEES SUMMIT    CLOUDY    43  41  93 S10       29.84F
6HR MIN TEMP:  43; 6HR MAX TEMP:  47;

OLATHE - IXD   CLOUDY    43  41  93 S14       29.81F
6HR MIN TEMP:  41; 6HR MAX TEMP:  45;

OLATHE - OJC   CLOUDY    43  42  97 S14       29.81F
6HR MIN TEMP:  42; 6HR MAX TEMP:  45;

LAWRENCE       CLOUDY    44  40  85 S14       29.80F

$$

MOZ001>008-011>017-020>025-030>033-038>040-044>046-053-054-220100-
...NORTHERN AND CENTRAL MISSOURI...

CITY           SKY/WX    TMP DP  RH WIND       PRES   REMARKS
ST. JOSEPH     CLOUDY    44  39  82 S13       29.80F
6HR MIN TEMP:  42; 6HR MAX TEMP:  44;

MOSBY          CLOUDY    45  41  87 SE7       29.84F
WARRENSBURG    CLOUDY    43  37  81 SE7       29.87F
WHITEMAN AFB   CLOUDY    43  38  82 S10       29.87F
6HR MIN TEMP:  43; 6HR MAX TEMP:  44; 6HR PCP: TRACE;

CLINTON        CLOUDY    45  39  81 SE8       29.89S
SEDALIA        CLOUDY    44  38  79 SE9       29.90S
6HR MIN TEMP:  44; 6HR MAX TEMP:  46;

WARSAW         NOT AVBL
MARSHALL       CLOUDY    46  41  81 SE10      29.90S
CHILLICOTHE      N/A     43  41  93 SE8       29.88S
6HR MIN TEMP:  43; 6HR MAX TEMP:  46; 6HR PCP:  0.01;

KIRKSVILLE     CLOUDY    43  39  87 SE13      29.89F
6HR MIN TEMP:  42; 6HR MAX TEMP:  45; 6HR PCP: TRACE;


$$

MOZ041-047>049-056>058-063>065-088>090-097-220100-
...EASTERN AND SOUTHERN MISSOURI...

CITY           SKY/WX    TMP DP  RH WIND       PRES   REMARKS
ST. LOUIS INTL CLOUDY    44  31  60 SE15      30.02S
6HR MIN TEMP:  43; 6HR MAX TEMP:  45; 6HR PCP: TRACE;

SPIRIT OF STL  CLOUDY    42  32  67 SE9       30.00F
COLUMBIA       CLOUDY    42  37  82 SE13      29.94R
JEFFERSON CITY CLOUDY    43  36  76 SE12      29.96R
HANNIBAL       CLOUDY    45  34  65 S13       29.95S
ROLLA          CLOUDY    39  33  79 SE9       29.94F WCI  33
LEBANON        CLOUDY    41  36  81 SE9       29.93S
OSAGE BEACH    CLOUDY    43  34  70 SE10      29.93S
SPRINGFIELD    CLOUDY    41  35  79 SE16      29.88F WCI  33
BRANSON        CLOUDY    41  37  87 E7        29.92F
NEVADA         CLOUDY    43  39  87 SE10G16   29.87S
JOPLIN         CLOUDY    46  38  73 SE8       29.86F
WEST PLAINS    CLOUDY    40  33  76 E8        29.96F WCI  34

$$

IAZ060-094-KSZ022-034>040-054-083-096-NEZ052-066-093-220100-
...KANSAS...SOUTHEAST NEBRASKA AND IOWA...

CITY           SKY/WX    TMP DP  RH WIND       PRES   REMARKS
TOPEKA         CLOUDY    46  43  89 SE13      29.78F
MANHATTAN      CLOUDY    44  43  96 S12       29.72F
EMPORIA        CLOUDY    42  42 100 S16       29.75F FOG     WCI  34
CHANUTE        CLOUDY    45  41  86 S12       29.81F
WICHITA        DRIZZLE   45  42  89 S15G24    29.70F FOG
OMAHA          CLOUDY    42  39  89 S17       29.72F WCI  34
LINCOLN        CLOUDY    42  40  92 S16       29.69S WCI  34
FALLS CITY     CLOUDY    42  40  92 S14       29.75F FOG     WCI  35
LAMONI         CLOUDY    41  39  93 SE9       29.81F
DES MOINES     CLOUDY    42  37  82 S12       29.81F

$$




USA.gov is the U.S. government's official web portal to all federal, state and local government web resources and services.